Location: Limerick
(52.6800°N, 8.6400°W)
Time: 10:23:58
(UTC+01:00)

ISS - All Passes

Search period start: 30 March 2015 00:00
Search period end: 09 April 2015 00:00
Orbit: 396 x 406 km, 51.6° (Epoch: 29 March)

Date Brightness Start Highest point End Pass type
(mag) Time Alt. Az. Time Alt. Az. Time Alt. Az.
30 Mar - 01:06:05 10° SW 01:09:08 37° SSE 01:12:11 10° E night (unlit)
30 Mar - 02:42:05 10° W 02:45:21 74° S 02:48:35 10° E night (unlit)
30 Mar - 04:18:27 10° W 04:21:38 53° SSW 04:24:48 10° ESE visible
30 Mar - 05:55:19 10° W 05:57:35 17° SW 05:59:48 10° S visible
31 Mar - 00:13:04 10° SSW 00:15:51 26° SSE 00:18:40 10° E night (unlit)
31 Mar - 01:48:43 10° WSW 01:51:57 67° S 01:55:11 10° E night (unlit)
31 Mar - 03:25:02 10° W 03:28:16 66° S 03:31:30 10° ESE night (unlit)
31 Mar - 05:01:35 10° W 05:04:21 26° SSW 05:07:06 10° SSE visible
31 Mar - 23:20:18 10° S 23:22:37 18° SE 23:24:57 10° E night (unlit)
01 Apr - 00:55:22 10° WSW 00:58:34 54° SSE 01:01:45 10° E night (unlit)
01 Apr - 02:31:36 10° W 02:34:52 74° S 02:38:06 10° E night (unlit)
01 Apr - 04:08:01 10° W 04:11:03 37° SSW 04:14:05 10° SE night (unlit)
01 Apr - 05:46:35 10° SW 05:46:48 10° SW 05:46:55 10° SW visible
01 Apr - 22:28:11 10° SSE 22:29:23 12° SE 22:30:40 10° ESE night (unlit)
02 Apr - 00:02:05 10° SW 00:05:11 40° SSE 00:08:16 10° E night (unlit)
02 Apr - 01:38:08 10° W 01:41:24 75° S 01:44:39 10° E night (unlit)
02 Apr - 03:14:31 10° W 03:17:41 50° SSW 03:20:50 10° ESE night (unlit)
02 Apr - 04:51:29 10° WSW 04:53:35 16° SW 04:55:38 10° S night (unlit)
02 Apr - 23:08:57 10° SW 23:11:48 29° SSE 23:14:41 10° E night (unlit)
03 Apr - 00:44:41 10° WSW 00:47:56 69° S 00:51:10 10° E night (unlit)
03 Apr - 02:21:01 10° W 02:24:14 63° SSW 02:27:27 10° ESE night (unlit)
03 Apr - 03:57:36 10° W 04:00:17 24° SSW 04:02:57 10° SSE night (unlit)
03 Apr - 22:16:01 10° SSW 22:18:28 20° SSE 22:20:56 10° E visible
03 Apr - 23:51:15 10° WSW 23:54:27 57° SSE 23:57:40 10° E night (unlit)
04 Apr - 01:27:29 10° W 01:30:45 73° S 01:33:59 10° E night (unlit)
04 Apr - 03:03:55 10° W 03:06:55 34° SSW 03:09:54 10° SE night (unlit)
04 Apr - 21:23:35 10° S 21:25:09 13° SE 21:26:47 10° ESE visible
04 Apr - 22:57:51 10° SW 23:00:58 43° SSE 23:04:06 10° E visible
05 Apr - 00:33:57 10° W 00:37:12 76° S 00:40:28 10° E night (unlit)
05 Apr - 02:10:19 10° W 02:13:28 47° SSW 02:16:36 10° SE night (unlit)
05 Apr - 03:47:25 10° WSW 03:49:20 15° SW 03:51:11 10° S night (unlit)
05 Apr - 22:04:35 10° SW 22:07:31 31° SSE 22:10:28 10° E visible
05 Apr - 23:40:24 10° WSW 23:43:39 71° S 23:46:54 10° E visible
06 Apr - 01:16:44 10° W 01:19:58 61° SSW 01:23:10 10° ESE night (unlit)
06 Apr - 02:53:22 10° W 02:55:58 22° SSW 02:58:33 10° SSE night (unlit)
06 Apr - 21:11:31 10° SSW 21:14:05 21° SSE 21:16:40 10° E visible
06 Apr - 22:46:52 10° WSW 22:50:06 60° SSE 22:53:19 10° E visible
07 Apr - 00:23:07 10° W 00:26:23 71° S 00:29:38 10° ESE visible
07 Apr - 01:59:34 10° W 02:02:32 32° SSW 02:05:28 10° SE night (unlit)
07 Apr - 20:18:51 10° S 20:20:40 14° SE 20:22:33 10° ESE daylight
07 Apr - 21:53:22 10° SW 21:56:31 46° SSE 21:59:40 10° E visible
07 Apr - 23:29:31 10° W 23:32:46 76° S 23:36:02 10° E visible
08 Apr - 01:05:53 10° W 01:09:01 44° SSW 01:12:07 10° SE night (unlit)
08 Apr - 02:43:09 10° WSW 02:44:50 13° SW 02:46:28 10° S night (unlit)
08 Apr - 21:00:00 10° SW 21:02:58 33° SSE 21:05:58 10° E visible
08 Apr - 22:35:52 10° WSW 22:39:08 72° S 22:42:23 10° E visible
